User: anonymous   Login
Location: Chiroubles
(46.1812°N, 4.6660°E)
Time: 12:05:05
(UTC+00:00)
Language:

Cosmos 1515 - Orbit

View from above orbital plane
View from above orbital plane
View from above satellite
View from above satellite

Ground track
Ground track

The orbit data is extracted from the following two-line orbital elements,

1 14551U 83122A   20293.57041516 +.00000549 +00000-0 +25134-4 0  9994
2 14551 082.5014 045.9389 0007563 025.2808 345.1547 15.18333667754943
Epoch (UTC): 19 October 2020 13:41:23
Eccentricity: 0.0007563
inclination: 82.5014°
perigee height: 505 km
apogee height: 516 km
right ascension of ascending node: 45.9389°
argument of perigee: 25.2808°
revolutions per day: 15.18333667
mean anomaly at epoch: 345.1547°
orbit number at epoch: 75494

The dashed part of the orbit path shows where the satellite is in the earth's shadow,  

DLR